RH
68 64 69 70 70 53 38 37 37 48 69 61 56 58 51 44 42 40 17 10 14 15 11 7 5 5 10 21 31 46 54 53 52 49 51 48 49 50 50 48 47 45 44 38 31
29 56 71 74 66 71 59 33 31 41 68 63 57 62 61 54 49 34 21 12 12 15 13 11 6 7 12 26 34 51 58 56 52 48 47 50 50 51 51 50 49 46 43 37 28
79 48 44 73 75 70 70 57 30 32 59 64 58 62 60 59 56 50 21 13 14 18 16 15 9 10 14 21 34 45 52 56 53 50 46 46 51 51 51 50 48 44 41 29 22
85 86 67 48 79 75 72 70 48 29 40 53 57 65 63 63 59 40 29 12 17 21 16 18 14 14 18 27 28 39 45 49 54 52 49 44 38 39 42 42 40 34 28 16 9
65 93 96 68 63 82 76 72 66 38 30 43 52 62 66 56 60 58 28 16 20 23 18 18 22 17 24 26 24 28 40 42 49 50 49 44 43 43 40 37 33 30 23 9 8
40 84 99 98 55 98 83 81 76 54 32 38 46 60 65 49 52 61 45 23 24 25 21 19 25 28 30 23 26 29 26 32 42 41 37 24 16 17 11 15 12 12 11 10 10
15 65 98 98 97 72 99 96 84 74 40 35 48 66 56 42 46 55 50 22 27 28 25 24 31 32 30 31 26 24 23 21 18 16 19 18 14 8 10 9 9 9 12 12 12
2 53 97 99 100 84 72 95 91 85 57 34 58 68 50 49 51 49 51 24 32 29 32 29 32 35 34 33 33 32 28 32 29 19 19 18 20 12 13 9 8 12 16 14 12
6 15 97 98 99 100 85 88 100 92 76 35 58 73 54 50 52 52 51 30 35 33 34 33 36 37 38 41 40 37 29 35 31 23 21 23 25 17 17 13 13 18 19 17 14
29 7 83 99 99 100 96 99 99 100 96 44 46 73 59 49 52 49 52 43 30 37 37 38 40 42 44 42 32 33 37 35 32 34 28 28 21 18 20 22 19 21 20 18 16
94 26 29 100 100 100 100 99 100 100 97 79 43 51 55 52 55 45 46 51 34 43 42 38 43 40 38 40 38 39 38 36 35 31 36 34 32 24 17 18 15 17 17 16 17
77 58 11 88 97 100 100 100 100 94 99 96 60 48 69 62 54 57 45 46 42 43 45 44 43 40 42 43 38 44 42 39 41 36 39 42 41 25 20 15 14 13 14 14 16
55 86 42 74 94 100 100 99 99 97 100 91 96 42 63 66 64 58 52 45 42 51 43 46 44 46 38 39 42 45 43 39 43 41 43 38 32 28 20 20 18 13 11 10 11
54 83 82 47 95 97 99 100 100 100 100 99 92 61 47 74 69 67 63 48 41 48 45 53 50 45 41 44 38 42 42 39 41 48 39 41 33 33 30 22 23 21 11 8 10
65 55 95 37 74 88 99 100 100 99 98 88 96 75 46 58 60 62 57 50 46 42 51 53 49 48 49 43 42 45 45 43 45 46 45 41 44 32 34 22 15 14 12 11 11
75 55 52 26 46 86 99 99 99 99 96 97 89 76 57 45 69 60 60 60 56 48 41 51 54 52 51 47 44 46 46 47 49 50 44 39 41 34 26 20 19 17 18 15 13
62 66 58 39 25 80 98 99 98 97 98 93 73 71 60 49 66 73 58 57 58 57 57 55 52 53 50 49 49 49 48 43 43 46 38 38 40 34 21 22 21 21 20 19 18
51 60 54 36 27 42 96 97 97 89 97 84 68 60 65 58 62 72 66 60 58 54 49 56 55 56 46 48 49 50 48 39 44 36 30 39 36 27 24 21 20 20 20 20 19
43 48 50 48 35 68 98 96 90 96 98 73 72 71 66 60 56 66 65 62 59 53 50 54 51 51 50 49 49 57 54 47 44 44 43 35 33 32 25 21 20 18 17 19 19
54 56 46 58 64 76 98 94 95 67 100 81 63 67 63 63 59 63 61 61 61 58 52 52 50 53 52 54 54 50 47 49 50 44 45 32 34 29 26 25 21 19 19 20 22
67 71 48 86 90 90 94 91 93 75 98 89 66 60 62 64 60 62 54 53 56 59 55 52 49 54 53 54 50 52 49 46 41 40 34 33 29 29 26 25 25 25 26 25 20
85 97 78 91 95 76 92 78 90 69 98 99 96 66 54 60 64 62 55 53 51 54 52 55 51 47 54 53 51 50 48 46 43 41 43 39 36 32 32 31 27 26 22 22 22
84 80 76 100 99 93 74 65 78 73 97 98 92 76 53 50 62 58 56 56 50 49 57 59 54 49 51 51 52 55 54 49 47 44 43 40 34 33 30 29 28 32 26 23 25
87 86 80 95 86 94 100 95 62 71 96 99 96 86 64 53 48 48 55 54 52 45 49 57 53 48 43 43 46 52 52 54 50 48 46 44 42 40 37 34 36 40 31 26 25
94 88 94 92 92 61 64 97 92 64 89 98 99 87 68 58 52 48 51 50 51 47 50 55 56 55 50 49 48 47 46 44 48 46 43 40 40 41 35 35 39 42 39 31 27
89 86 88 90 90 97 92 74 97 71 79 87 95 79 64 51 46 46 41 47 44 48 47 55 57 56 56 54 51 50 48 48 46 46 44 43 42 41 37 36 40 38 33 33 28
64 87 89 74 89 96 94 88 73 85 61 86 94 89 66 52 49 42 40 42 42 38 47 57 58 58 54 54 58 58 52 51 49 47 45 46 42 36 38 37 36 37 32 30 28
Wind_Speed
39 39 36 34 32 31 29 28 25 22 21 19 17 16 15 14 15 13 10 13 14 12 8 7 11 15 19 21 25 23 11 9 9 10 10 13 15 14 13 12 11 10 10 11 13
44 42 39 36 35 32 31 29 27 26 24 22 20 19 18 16 14 13 14 15 15 13 10 8 11 15 19 22 24 21 13 10 12 11 11 15 16 17 15 16 15 14 14 16 17
41 43 43 40 38 35 32 31 30 29 27 26 23 22 22 21 17 15 15 15 16 14 13 10 13 16 19 22 24 25 14 16 11 13 12 12 15 18 18 20 17 17 19 19 20
44 43 42 42 39 38 36 33 32 31 30 28 26 24 22 21 12 8 13 15 16 15 14 11 12 16 18 19 24 21 25 22 19 16 16 16 17 19 22 19 21 21 21 22 18
46 45 42 40 41 40 38 37 34 33 32 30 28 26 24 23 20 18 11 15 18 17 14 12 11 13 17 18 21 24 22 25 24 21 22 22 23 24 28 23 25 25 24 21 19
48 46 44 42 41 32 43 40 37 35 34 32 30 28 25 22 17 20 16 15 19 18 16 15 12 11 11 17 15 18 22 25 26 26 27 27 27 28 26 23 23 23 22 21 19
48 47 44 44 42 44 35 39 38 37 36 34 31 30 28 18 16 19 18 18 21 21 18 17 14 12 12 10 15 15 17 19 20 22 24 22 26 26 20 22 21 21 18 17 16
48 46 46 44 43 44 43 37 41 40 37 36 34 33 31 23 19 19 20 20 22 23 21 19 18 17 16 14 10 14 16 12 13 17 20 18 19 18 18 16 14 17 16 15 16
44 45 45 46 45 43 34 36 39 43 39 38 37 36 34 30 22 19 22 21 21 25 23 21 20 21 18 14 11 14 12 8 10 13 14 15 14 14 13 15 17 17 18 17 17
37 40 50 46 45 40 46 33 50 36 42 40 42 36 34 25 28 22 22 24 25 26 26 25 24 21 20 18 18 15 12 13 14 10 14 18 25 20 19 22 21 23 23 22 21
24 31 48 45 40 40 42 44 39 45 46 50 44 44 32 35 19 21 25 27 28 28 30 30 25 28 25 22 18 15 12 15 16 20 22 23 27 27 23 25 27 27 27 27 25
20 23 38 54 49 45 41 41 50 40 45 48 44 42 40 29 25 29 22 29 31 32 31 30 32 27 21 21 23 19 16 19 19 22 19 20 27 29 26 23 24 26 28 30 28
21 23 25 53 58 43 45 55 43 48 40 49 47 45 41 39 39 27 21 24 31 31 34 31 24 30 28 27 25 21 21 19 19 21 25 26 29 21 21 19 19 22 25 26 29
23 21 22 48 52 51 43 46 41 37 36 38 49 50 50 43 39 34 28 24 31 33 33 29 28 22 23 33 28 25 22 23 23 18 19 13 13 23 27 26 22 22 23 25 25
21 25 19 29 56 55 44 43 48 42 7 25 48 45 51 54 39 42 32 28 30 32 33 26 30 35 29 25 24 25 23 22 22 19 20 20 17 13 18 22 13 13 17 23 25
21 23 26 27 57 54 49 13 27 33 10 18 32 51 51 56 51 29 40 34 29 27 32 28 26 24 28 30 27 20 15 17 17 13 17 21 20 15 11 13 16 15 15 17 20
23 21 25 29 42 53 54 30 19 11 20 20 34 50 61 53 48 50 40 43 35 24 28 25 31 30 25 22 26 28 18 12 9 7 12 11 13 26 19 16 15 17 18 22 20
24 22 23 28 29 44 38 31 17 20 27 14 36 42 51 43 44 52 37 37 40 32 20 26 17 33 33 32 21 26 27 16 9 10 8 5 9 5 3 12 21 22 21 16 15
23 27 24 27 28 27 28 22 17 14 35 23 26 30 31 42 32 37 49 46 42 44 28 25 22 14 26 32 30 19 28 24 25 18 12 19 20 25 24 11 16 18 13 20 17
23 25 24 23 24 28 29 29 27 34 17 31 26 29 37 43 37 40 40 44 41 47 36 17 8 21 22 26 30 28 20 15 18 10 13 10 12 14 14 15 19 20 22 15 12
24 24 23 16 22 29 36 32 32 29 22 30 29 34 30 43 44 40 36 32 44 43 44 29 21 12 23 32 30 31 26 20 17 23 10 11 8 7 8 7 9 8 7 7 7
21 16 15 18 24 35 39 43 34 39 28 26 27 28 42 38 40 33 39 36 31 38 51 40 23 24 23 20 32 32 30 32 26 15 16 24 30 16 20 21 16 10 5 5 4
19 20 16 24 29 31 35 37 32 44 34 25 29 36 34 40 29 41 37 36 22 30 37 39 25 22 14 20 27 34 33 31 33 26 30 19 10 6 8 9 13 17 12 12 8
15 13 12 20 31 27 32 32 45 48 30 30 24 31 33 35 35 36 33 34 33 20 33 40 26 37 22 10 25 27 30 34 32 31 27 37 30 27 24 22 19 16 15 21 19
14 13 16 16 26 33 38 22 36 49 45 33 33 35 36 33 38 29 40 35 34 25 28 37 37 27 31 19 14 21 27 30 33 36 33 30 32 27 25 25 23 26 23 26 24
16 17 17 24 20 24 26 43 32 44 41 42 42 42 39 34 48 46 32 40 40 35 31 40 20 30 25 26 27 23 26 25 30 34 35 33 34 30 29 26 24 26 21 25 28
18 17 21 25 26 20 29 33 38 29 52 37 47 41 42 37 30 32 33 32 32 38 41 42 25 23 27 23 22 28 35 34 32 34 33 34 33 25 20 18 13 13 14 20 25
Wind_Direction
252 255 254 253 250 251 253 252 251 246 248 253 255 262 268 274 272 267 267 242 237 235 227 217 206 199 193 195 195 194 202 218 213 210 219 218 216 223 234 248 255 269 278 287 293
252 250 250 252 251 249 249 251 249 245 244 248 250 256 261 268 276 273 253 245 233 230 226 210 210 202 198 201 203 200 209 227 223 222 224 227 227 235 242 251 256 263 275 282 288
249 250 247 247 250 249 246 246 247 247 244 248 249 252 259 262 270 275 253 242 228 227 227 210 208 206 204 206 209 213 216 227 231 234 239 242 238 244 248 253 260 268 272 281 285
244 246 248 243 244 246 246 243 245 244 245 246 250 253 257 257 264 265 247 235 224 219 227 217 213 210 210 210 216 220 225 228 234 241 244 247 252 255 255 260 265 265 274 280 272
244 240 244 242 240 241 243 243 241 242 243 244 248 252 254 252 241 252 256 223 220 217 219 220 218 218 217 221 223 226 235 236 239 248 256 260 261 260 261 262 266 270 275 275 266
245 240 236 241 234 242 241 238 239 239 240 242 244 247 247 248 250 236 239 229 216 217 216 215 218 219 220 229 227 235 241 245 246 255 262 268 270 267 271 269 267 265 268 270 261
247 238 237 234 235 228 241 231 237 238 238 238 240 242 241 232 241 228 229 221 216 211 215 214 213 218 229 234 236 239 245 253 255 256 264 271 267 270 275 267 258 261 264 265 264
251 235 232 233 234 236 236 244 238 236 235 235 236 238 237 236 239 232 230 220 215 213 214 213 217 225 225 227 234 236 248 247 254 259 263 265 271 286 276 267 254 248 256 268 262
250 235 227 229 229 236 234 237 238 233 232 233 233 236 237 237 233 231 224 219 214 213 216 216 217 217 222 221 236 243 241 247 267 264 264 264 267 276 289 252 251 250 255 265 267
253 243 219 221 226 237 225 243 239 239 228 229 229 232 228 236 229 229 225 216 214 213 215 216 217 216 217 217 223 234 244 260 258 267 266 269 273 272 268 269 261 260 263 266 265
270 252 225 219 224 232 220 240 234 236 233 226 227 228 227 228 215 219 222 217 212 213 213 216 216 216 220 226 237 242 243 264 271 278 283 280 280 277 271 269 270 271 269 266 262
266 261 229 217 216 222 227 226 222 236 232 231 230 226 223 225 221 224 219 212 212 215 209 217 222 227 223 230 241 243 252 260 277 283 289 290 285 284 281 276 275 275 268 263 257
259 262 241 213 213 219 224 218 227 235 247 245 223 226 221 223 226 221 222 220 221 214 219 217 227 227 232 236 237 241 247 259 270 286 296 300 294 290 279 277 277 275 271 266 260
260 261 251 217 215 217 223 218 229 228 228 225 231 222 220 220 224 224 225 223 219 221 225 227 226 229 237 234 239 244 255 264 278 284 284 287 288 281 291 290 283 272 268 265 261
269 257 251 233 215 213 219 230 229 230 225 233 222 217 220 217 221 217 214 216 223 221 216 221 229 229 227 234 241 246 253 267 267 272 280 270 280 288 297 305 306 292 263 264 268
279 259 256 238 215 211 219 178 215 207 222 191 195 208 212 214 216 217 213 216 224 221 231 224 235 225 235 241 235 240 249 264 268 263 258 268 248 289 277 295 293 283 271 270 278
270 266 249 244 225 218 219 205 227 220 211 200 191 204 212 208 204 212 207 208 207 199 215 220 226 231 227 229 232 231 225 239 242 220 258 259 244 256 288 276 289 301 283 273 277
268 255 256 246 237 230 240 231 238 220 209 197 197 202 203 200 205 208 208 209 214 210 211 205 215 220 224 219 222 220 214 217 242 256 281 252 237 240 244 300 291 292 282 281 272
276 250 260 245 239 236 234 220 224 230 206 192 180 182 189 200 204 198 209 211 210 207 200 203 222 233 217 223 212 209 217 230 253 262 267 257 262 275 270 292 300 300 282 269 274
289 260 255 247 231 225 232 233 232 218 197 205 184 188 188 191 195 197 201 217 210 218 207 211 211 223 218 211 217 219 218 203 215 242 245 242 253 246 288 295 293 283 280 277 263
291 279 259 256 219 218 223 234 238 206 198 195 201 197 196 186 198 200 207 218 213 214 213 215 215 212 206 207 208 207 212 213 227 232 247 260 247 234 269 319 354 318 260 254 247
289 280 268 261 226 224 223 227 225 219 203 208 205 207 204 192 193 200 209 213 212 215 213 208 215 218 216 217 219 225 223 218 220 205 237 257 261 248 271 280 283 311 298 223 188
296 266 266 240 225 232 245 236 235 221 216 216 204 207 208 204 192 206 210 208 208 207 202 194 209 205 227 229 225 223 221 225 231 242 249 239 250 203 250 259 270 295 251 204 190
312 294 297 239 238 244 235 230 231 219 232 217 208 202 209 204 206 211 210 210 209 209 205 203 205 209 210 227 211 215 217 224 224 231 240 243 255 258 267 270 272 279 258 241 234
308 297 287 286 250 247 245 226 223 229 228 226 200 203 198 200 207 208 208 203 201 194 198 206 214 213 224 229 207 218 222 223 225 234 237 252 257 261 263 264 274 267 259 243 247
294 306 292 293 302 258 244 234 229 231 224 227 209 190 193 208 206 203 208 208 200 196 200 202 216 214 222 223 233 236 235 235 247 242 245 250 257 261 266 270 272 265 257 241 245
283 284 290 297 293 295 254 242 225 226 224 222 215 204 193 201 218 223 218 216 207 205 203 195 197 195 227 228 237 247 236 239 243 244 247 243 252 263 263 253 270 265 249 247 250